Location: Caltech
(34.1382°N, 118.1253°W)
Time: 12:17:45
(UTC-07:00)

A-11 Canister half - All Passes

Search period start: 24 April 2014 00:00
Search period end: 04 May 2014 00:00
Orbit: 1516 x 1684 km, 47.2° (Epoch: 21 April)

Date Brightness Start Highest point End Pass type
(mag) Time Alt. Az. Time Alt. Az. Time Alt. Az.
24 Apr - 00:20:42 10° NW 00:30:08 45° NNE 00:39:44 10° E visible
24 Apr - 02:25:59 10° NW 02:36:07 88° SW 02:46:19 10° SE visible
24 Apr - 04:32:24 10° WNW 04:40:18 27° SW 04:48:14 10° S visible
24 Apr - 17:41:07 10° S 17:49:15 35° SE 17:57:38 10° ENE daylight
24 Apr - 19:44:06 10° WSW 19:53:36 77° NNW 20:03:31 10° NE visible
24 Apr - 21:50:54 10° WNW 21:59:54 41° N 22:09:12 10° ENE visible
24 Apr - 23:57:46 10° NW 00:07:07 44° NNE 00:16:40 10° E visible
25 Apr - 02:03:05 10° NW 02:13:13 88° NE 02:23:25 10° SE visible
25 Apr - 04:09:17 10° WNW 04:17:29 29° SW 04:25:42 10° S visible
25 Apr - 17:18:33 10° S 17:26:28 32° SE 17:34:35 10° ENE daylight
25 Apr - 19:21:13 10° WSW 19:30:42 80° NW 19:40:35 10° NE daylight
25 Apr - 21:27:54 10° W 21:36:54 41° NNW 21:46:12 10° ENE visible
25 Apr - 23:34:50 10° NW 23:44:07 43° NNE 23:53:36 10° E visible
26 Apr - 01:40:11 10° NW 01:50:17 84° NE 02:00:30 10° SE visible
26 Apr - 03:46:13 10° WNW 03:54:39 31° SW 04:03:08 10° S visible
26 Apr - 16:56:00 10° S 17:03:40 30° SE 17:11:31 10° ENE daylight
26 Apr - 18:58:21 10° SW 19:07:49 84° NW 19:17:40 10° NE daylight
26 Apr - 21:04:54 10° W 21:13:54 42° NNW 21:23:13 10° NE visible
26 Apr - 23:11:54 10° WNW 23:21:06 42° NNE 23:30:32 10° E visible
27 Apr - 01:17:18 10° NW 01:27:22 81° NE 01:37:34 10° ESE visible
27 Apr - 03:23:10 10° WNW 03:31:50 34° SW 03:40:32 10° S visible
27 Apr - 16:33:30 10° S 16:40:53 27° SE 16:48:26 10° ENE daylight
27 Apr - 18:35:30 10° SW 18:44:56 88° NW 18:54:45 10° NE daylight
27 Apr - 20:41:54 10° W 20:50:54 43° NNW 21:00:14 10° NE visible
27 Apr - 22:48:58 10° WNW 22:58:06 41° N 23:07:27 10° E visible
28 Apr - 00:54:25 10° NW 01:04:26 77° NE 01:14:38 10° ESE visible
28 Apr - 03:00:08 10° WNW 03:08:59 37° SW 03:17:54 10° SSE visible
28 Apr - 16:11:02 10° S 16:18:06 25° SE 16:25:18 10° ENE daylight
28 Apr - 18:12:39 10° SW 18:22:03 88° SE 18:31:50 10° NE daylight
28 Apr - 20:18:54 10° W 20:27:55 44° NNW 20:37:16 10° NE visible
28 Apr - 22:26:01 10° WNW 22:35:05 40° N 22:44:23 10° ENE visible
29 Apr - 00:31:31 10° NW 00:41:30 74° NNE 00:51:40 10° ESE visible
29 Apr - 02:37:07 10° WNW 02:46:09 39° SW 02:55:15 10° SSE visible
29 Apr - 15:48:36 10° S 15:55:19 23° SE 16:02:09 10° ENE daylight
29 Apr - 17:49:49 10° SW 17:59:11 84° SE 18:08:55 10° NE daylight
29 Apr - 19:55:55 10° W 20:04:56 45° NNW 20:14:18 10° NE visible
29 Apr - 22:03:05 10° WNW 22:12:04 39° N 22:21:19 10° ENE visible
30 Apr - 00:08:38 10° NW 00:18:34 70° NNE 00:28:42 10° ESE visible
30 Apr - 02:14:08 10° WNW 02:23:18 42° SW 02:32:35 10° SSE visible
30 Apr - 15:26:13 10° SSE 15:32:33 21° SE 15:38:58 10° E daylight
30 Apr - 17:27:00 10° SW 17:36:19 79° SE 17:46:00 10° NE daylight
30 Apr - 19:32:56 10° W 19:41:57 46° NNW 19:51:20 10° NE daylight
30 Apr - 21:40:07 10° WNW 21:49:03 39° N 21:58:15 10° ENE visible
30 Apr - 23:45:45 10° NW 23:55:38 67° NNE 00:05:43 10° ESE visible
01 May - 01:51:09 10° WNW 02:00:27 45° SW 02:09:52 10° SSE visible
01 May - 15:03:54 10° SSE 15:09:47 19° SE 15:15:44 10° E daylight
01 May - 17:04:12 10° SW 17:13:28 75° SE 17:23:04 10° ENE daylight
01 May - 19:09:57 10° W 19:18:59 48° NNW 19:28:23 10° NE daylight
01 May - 21:17:10 10° WNW 21:26:03 38° N 21:35:11 10° ENE visible
01 May - 23:22:52 10° NW 23:32:41 65° NNE 23:42:44 10° ESE visible
02 May - 01:28:12 10° WNW 01:37:36 48° SW 01:47:09 10° SSE visible
02 May - 14:41:39 10° SSE 14:47:01 17° ESE 14:52:25 10° E daylight
02 May - 16:41:25 10° SW 16:50:37 71° SE 17:00:09 10° ENE daylight
02 May - 18:46:58 10° W 18:56:02 49° NNW 19:05:26 10° NE daylight
02 May - 20:54:13 10° WNW 21:03:02 38° N 21:12:07 10° ENE visible
02 May - 22:59:59 10° NW 23:09:44 62° NNE 23:19:44 10° ESE visible
03 May - 01:05:15 10° WNW 01:14:45 51° SW 01:24:24 10° SSE visible
03 May - 14:19:30 10° SSE 14:24:15 15° ESE 14:29:01 10° E daylight
03 May - 16:18:38 10° SW 16:27:47 67° SE 16:37:13 10° ENE daylight
03 May - 18:24:00 10° W 18:33:04 51° NNW 18:42:30 10° NE daylight
03 May - 20:31:15 10° WNW 20:40:01 38° N 20:49:04 10° ENE visible
03 May - 22:37:07 10° NW 22:46:47 59° NNE 22:56:43 10° ESE visible
